Location: McFarlands Corners
(41.4117°N, 81.3382°W)
Time: 14:52:57
(UTC+00:00)

Tiros 1 despin weight - Pass Details

Date: 07 November 2024
Orbit: 570 x 610 km, 48.2° (Epoch: 01 December)

Event Time Altitude Azimuth Distance (km) Brightness Sun altitude
Exits shadow 09:52:21 - 183° (S) 2,818 ? -25.1°
Reaches altitude 10° 09:56:09 10° 150° (SSE) 1,923 ? -24.4°
Maximum altitude 09:57:33 11° 131° (SE) 1,831 ? -24.1°
Drops below altitude 10° 09:58:58 10° 112° (ESE) 1,918 ? -23.8°
Sets 10:02:47 0° 79° (E) 2,812 ? -23.1°
